User: anonymous   Login
Location: Unspecified
(0.0000°N, 0.0000°E)
Time: 05:33:47
(UTC+00:00)
Language:

BEESAT - Orbit

View from above orbital plane
View from above orbital plane
View from above satellite
View from above satellite

Ground track
Ground track

The orbit data is extracted from the following two-line orbital elements,

1 35933U 09051C   19083.16969672  .00000091  00000-0  31567-4 0  9991
2 35933  98.5804 248.3697 0007017  86.5838 273.6161 14.56348275504292
Epoch (UTC): 24 March 2019 04:04:21
Eccentricity: 0.0007017
inclination: 98.5804°
perigee height: 700 km
apogee height: 710 km
right ascension of ascending node: 248.3697°
argument of perigee: 86.5838°
revolutions per day: 14.56348275
mean anomaly at epoch: 273.6161°
orbit number at epoch: 50429

The dashed part of the orbit path shows where the satellite is in the earth's shadow,  

DLR